Zurück zum Katalog

COSMOS 1605

AktivMilitärPO
NORAD 15359·PAYLOAD·🇷🇺 Russia

Gestartet Oct 11, 1984 von Plesetsk Cosmodrome

Loading…

Nächste Überflüge (nächste 24 Stunden)

TLE

AktuellSource: Space-Track

Epoche: Sep 14, 2026, 00:45 UTC

1 15359U 84109A   26257.03176189  .00000035  00000-0  19677-4 0  9994
2 15359  82.9355  86.1969 0047623  74.5498  82.9620 13.75427517104043

Verfolge COSMOS 1605 in Echtzeit mit AllMySat

Download on the App Store